GW1765 Weather Reports


Display with metric or nautical units.
time (UTC)temp
F
wind
direction
speed
MPH
gust
MPH
rain 1hr
in
rain 24hr
in
rain mn
in
humidity
%
barometer
mb
20260503232056 58 318 4.0 7.0 0.00 0.00 0.00 70 1036.8
20260503231053 58 345 4.0 8.0 0.00 0.00 0.00 70 1036.8
20260503230052 57 345 4.0 8.0 0.00 0.00 0.00 70 1036.8
20260503225050 58 327 4.0 7.0 0.00 0.00 0.00 70 1036.8
20260503224047 58 330 2.0 4.0 0.00 0.00 0.00 71 1036.9
20260503223045 57 351 4.0 6.0 0.00 0.00 0.00 71 1036.8
20260503222045 57 5 4.0 6.0 0.00 0.00 0.00 71 1036.9
20260503221045 57 5 3.0 7.0 0.00 0.00 0.00 71 1036.9
20260503220039 57 354 3.0 5.0 0.00 0.00 0.00 72 1036.9
20260503215036 57 54 2.0 4.0 0.00 0.00 0.00 73 1037.0
20260503214035 57 100 2.0 3.0 0.00 0.00 0.00 75 1037.0
20260503213032 56 77 2.0 4.0 0.00 0.00 0.00 75 1037.1
20260503212031 55 52 2.0 4.0 0.00 0.00 0.00 76 1037.0
20260503211028 55 64 2.0 4.0 0.00 0.00 0.00 77 1037.0
20260503210028 54 53 2.0 4.0 0.00 0.00 0.00 80 1036.9
20260503205047 53 55 3.0 6.0 0.00 0.00 0.00 81 1036.9
20260503204021 53 39 3.0 5.0 0.00 0.00 0.00 81 1036.8
20260503203019 53 87 3.0 4.0 0.00 0.00 0.00 81 1036.7
20260503202019 52 59 4.0 6.0 0.00 0.00 0.00 81 1036.7
20260503201015 52 72 4.0 6.0 0.00 0.00 0.00 82 1036.6
20260503200113 52 75 3.0 5.0 0.00 0.00 0.00 82 1036.5
20260503195111 52 71 3.0 7.0 0.00 0.00 0.00 83 1036.3
20260503194109 52 82 1.0 4.0 0.00 0.00 0.00 83 1036.1
20260503193107 51 93 3.0 6.0 0.00 0.00 0.00 83 1036.2
20260503192107 51 99 3.0 5.0 0.00 0.00 0.00 83 1036.1
20260503191103 51 90 6.0 9.0 0.00 0.00 0.00 83 1036.2
20260503185058 51 60 4.0 8.0 0.00 0.00 0.00 83 1036.1
20260503184117 51 67 3.0 6.0 0.00 0.00 0.00 83 1036.0
20260503183056 51 86 3.0 6.0 0.00 0.00 0.00 83 1036.0
20260503182054 51 93 3.0 5.0 0.00 0.00 0.00 84 1035.9
20260503181052 51 90 3.0 5.0 0.00 0.00 0.00 84 1035.9
20260503180048 51 95 4.0 6.0 0.00 0.00 0.00 84 1035.9
20260503175047 51 94 3.0 4.0 0.00 0.00 0.00 84 1035.9
20260503174104 51 94 2.0 4.0 0.00 0.00 0.00 84 1036.0
20260503173042 51 88 4.0 7.0 0.00 0.00 0.00 85 1036.0
20260503172041 51 45 3.0 5.0 0.00 0.00 0.00 85 1036.0
20260503171037 51 73 3.0 6.0 0.00 0.00 0.00 86 1036.1
20260503150109 50 90 2.0 4.0 0.00 0.00 0.00 93 1036.5
20260503131112 49 83 1.0 2.0 0.00 0.00 0.00 95 1036.6
20260503130110 49 83 1.0 3.0 0.00 0.00 0.00 95 1036.6
20260503081107 49 62 1.0 4.0 0.00 0.00 0.00 85 1034.7
20260503080106 49 107 3.0 4.0 0.00 0.00 0.00 83 1034.8
20260503072113 52 90 0.0 1.0 0.00 0.00 0.00 80 1034.5
20260503071043 52 93 1.0 2.0 0.00 0.00 0.00 78 1034.3
20260503055108 58 184 1.0 2.0 0.00 0.00 0.00 65 1034.2
20260503054128 59 197 1.0 3.0 0.00 0.00 0.00 64 1034.2
20260503053104 61 222 1.0 2.0 0.00 0.00 0.00 62 1034.2
20260503052116 63 225 2.0 4.0 0.00 0.00 0.00 61 1034.2
20260503051114 65 141 1.0 2.0 0.00 0.00 0.00 63 1034.1
20260503050112 63 129 1.0 3.0 0.00 0.00 0.00 67 1034.1
20260503045044 62 135 2.0 4.0 0.00 0.00 0.00 70 1034.2
20260503044041 60 229 3.0 5.0 0.00 0.00 0.00 69 1034.2
20260503043039 60 212 3.0 5.0 0.00 0.00 0.00 68 1034.1
20260503042056 61 281 1.0 3.0 0.00 0.00 0.00 68 1034.1
20260503041030 61 32 1.0 2.0 0.00 0.00 0.00 68 1034.2
20260503040111 60 27 0.0 2.0 0.00 0.00 0.00 67 1034.3
20260503035020 60 285 2.0 4.0 0.00 0.00 0.00 69 1034.4
20260503034020 60 213 2.0 4.0 0.00 0.00 0.00 69 1034.4
20260503033016 60 283 1.0 2.0 0.00 0.00 0.00 69 1034.4
20260503032149 60 270 2.0 4.0 0.00 0.00 0.00 68 1034.5
20260503031107 60 311 4.0 8.0 0.00 0.00 0.00 65 1034.4
20260503030105 62 308 4.0 8.0 0.00 0.00 0.00 65 1034.4
20260503025056 62 288 4.0 8.0 0.00 0.00 0.00 66 1034.4
20260503024054 63 209 2.0 8.0 0.00 0.00 0.00 65 1034.5
20260503023052 63 250 2.0 4.0 0.00 0.00 0.00 66 1034.5
20260503022106 63 243 3.0 6.0 0.00 0.00 0.00 67 1034.6
20260503021044 62 264 2.0 6.0 0.00 0.00 0.00 68 1034.7
20260503020039 61 301 4.0 7.0 0.00 0.00 0.00 69 1034.8
20260503015032 61 308 5.0 8.0 0.00 0.00 0.00 67 1034.8
20260503014031 62 291 6.0 8.0 0.00 0.00 0.00 63 1034.8
20260503013050 63 325 7.0 10.0 0.00 0.00 0.00 61 1034.9
20260503012020 64 315 6.0 9.0 0.00 0.00 0.00 59 1034.9
20260503011018 64 318 6.0 9.0 0.00 0.00 0.00 58 1035.0
20260503010015 64 317 6.0 9.0 0.00 0.00 0.00 57 1035.2
20260503005108 65 319 7.0 9.0 0.00 0.00 0.00 55 1035.3
20260503004106 66 306 4.0 9.0 0.00 0.00 0.00 59 1035.5
20260503003104 65 326 5.0 8.0 0.00 0.00 0.00 58 1035.6
20260503002057 65 331 5.0 9.0 0.00 0.00 0.00 57 1035.9
20260503001054 64 325 4.0 5.0 0.00 0.00 0.00 58 1036.0
20260503000052 64 322 3.0 7.0 0.00 0.00 0.00 60 1036.2
20260502235046 62 318 4.0 6.0 0.00 0.00 0.00 63 1036.4
20260502234044 63 309 3.0 4.0 0.00 0.00 0.00 61 1036.6
20260502233041 63 345 3.0 8.0 0.00 0.00 0.00 62 1036.6